{"data":{"norad_id":66094,"intl_designator":"2025-236J","name":"STARLINK-35528","alt_names":[],"object_type":"PAYLOAD","status":"ACTIVE","operator":null,"country":"US","launch_date":"2025-10-19","launch_site_code":"AFWTR","launch_vehicle":null,"mission":null,"orbit_class":"UNKNOWN","rcs_meters":null,"size_class":null,"mass_kg":null,"dimensions":null,"purposes":["comms"],"wikipedia_slug":null,"has_3d_model":false,"image_url":null,"decayed_at":null,"tle_current":{"epoch":"2026-09-20T12:32:57.006528Z","epoch_age_seconds":101106,"freshness":"FRESH","line1":"1 66094U 25236J   26263.52288202  .00019268  00000+0  57987-3 0  9995","line2":"2 66094  53.1591 277.5320 0001455  68.1023 292.0134 15.34402987 52799","mean_motion":15.34402987,"eccentricity":0.0001455,"inclination_deg":53.1591,"raan_deg":277.532,"arg_perigee_deg":68.1023,"mean_anomaly_deg":292.0134,"bstar":0.00057987,"rev_number":5279,"period_min":93.847575389268,"perigee_km":461.69902126482,"apogee_km":463.68970319123,"semimajor_km":6840.831362228,"source":"CELESTRAK","updated_at":"2026-09-21T09:00:35.801778Z"}}}